[ hide orbit diagram ]
For accurate long-term ephemerides, please instead use our Horizons system.This orbit viewer was implemented using two-body methods, and hence should not be used for determining accurate long-term trajectories (over several years or decades) or planetary encounter circumstances.
Orbital Elements at Epoch 2459200.5 (2020-Dec-17.0) TDB
Reference: JPL 32 (heliocentric ecliptic J2000)
Element | Value | Uncertainty (1-sigma) | Units |
e | .1599643763008888 | 1.1727e-08 | |
a | 2.258807008768615 | 5.5986e-09 | au |
q | 1.897478354426867 | 2.8908e-08 | au |
i | 5.468013632891552 | 8.3763e-07 | deg |
node | 40.10833118594703 | 4.8809e-06 | deg |
peri | 350.6553167325236 | 7.3331e-06 | deg |
M | 355.2284886145475 | 5.5987e-06 | deg |
tp | 2459216.935033001679 (2021-Jan-02.43503300) | 1.9289e-05 | TDB |
period | 1239.986956468961 3.39 | 4.6101e-06 1.262e-08 | d yr |
n | .2903256345737306 | 1.0794e-09 | deg/d |
Q | 2.620135663110363 | 6.4942e-09 | au |
|
| | Orbit Determination Parameters
Additional Information
|
[ show covariance matrix ]
Physical Parameter Table
Parameter |
Symbol |
Value |
Units |
Sigma |
Reference |
Notes |
absolute magnitude |
H |
13.73 |
|
n/a |
E2021B10 |
|
diameter |
diameter |
5.911 |
km |
0.117 |
urn:nasa:pds:neowise_diameters_albedos::2.0[mainbelt] (http://adsabs.harvard.edu/abs/2014ApJ...791..121M) |
|
geometric albedo |
albedo |
0.161 |
|
0.014 |
urn:nasa:pds:neowise_diameters_albedos::2.0[mainbelt] (http://adsabs.harvard.edu/abs/2014ApJ...791..121M) |
|
|
11086 Nagatayuji | Discovered 1993 Oct. 11 by K. Endate and K. Watanabe at Kitami. |
Yuji Nagata (b. 1953), former director of the Fukuoka Astronomical Society, has interests in comets and solar eclipses. |
NOTE: some special characters may not display properly (any characters within {} are an attempt to place the proper accent above a character) |
Reference: 20020526/MPCPages.arc | Last Updated: 2003-10-02 |
|
[ hide close-approach data ]
Close-Approach Data ...sorted by Date/Time (TDB)
|
Date/Time (TDB) |
Time Uncertainty (days_HH:MM) |
Body |
Nominal Distance (au) |
Minimum Distance (au) |
Maximum Distance (au) |
V-relative (km/s) |
V-infinity (km/s) |
JD (TDB) |
Time Uncertainty (minutes) |
Semi-major axis (km) |
Semi-minor axis (km) |
range-LOV angle (deg) |
N-sigma |
BP |
Orbit Ref. |
Reference |
Modified |
1908-Aug-02 16:24 |
< 00:01 |
Hebe |
0.00808470711475649 |
0.00808046122782119 |
0.00808896792140604 |
6.45767720738401 |
6.45767708831001 |
2418156.183121589 |
0.426760782508715 |
589.862949421303 |
21.723250588104 |
69.032672009032 |
51977.41590688 |
T |
32 |
CATAB v2.0f-lin.ifort 2021-Apr-12 22:31:51 |
2021-Apr-12 22:31 |
1985-Oct-23 08:57 |
< 00:01 |
Thisb |
0.0118093469571918 |
0.0118071098666925 |
0.0118115840532511 |
3.65209858139239 |
3.65209842330166 |
2446361.872645539 |
0.92775970865303 |
112.234046937789 |
19.1323810811228 |
-6.73471978798583 |
19000.4157391895 |
T |
32 |
CATAB v2.0f-lin.ifort 2021-Apr-12 22:31:51 |
2021-Apr-12 22:31 |
|
Alternate Designations
1993 TC1 = 1966 VE = 1998 BN41 = 1999 JV61 |
|
|